SXM-7

Last updated on Sun Oct 06 2024 00:02:42 GMT+0000 (Coordinated Universal Time)

1 47240U 20096A 24278.80893471 -.00000196 00000+0 00000+0 0 9992 2 47240 0.0109 147.4463 0004578 334.4401 98.1374 1.00272278 14119
UTC large
Height (km)
Speed (km/s)
/
Latitude / Longitude
Inclination (degrees)
Orbital Period (minutes)
Azimuth
Elevation
Range (km)
Doppler Factor

Next 0 passes for location: London (51.5072 / 0.1276)

Sorry there are no passes over London.